Time,TemperatureF,DewpointF,PressureIn,WindDirection,WindDirectionDegrees,WindSpeedMPH,WindSpeedGustMPH,Humidity,HourlyPrecipIn,Conditions,Clouds,dailyrainin,SoftwareType,DateUTC
2013-03-30 00:00:00,52.0,34.3,30.12,North,354,0.0,0.0,51,0.00,,,0.00,meteohub,2013-03-30 04:00:00,
2013-03-30 00:05:00,52.2,33.6,30.13,North,354,0.0,0.0,49,0.00,,,0.00,meteohub,2013-03-30 04:05:00,
2013-03-30 00:10:00,50.7,30.7,30.12,North,354,0.0,0.0,46,0.00,,,0.00,meteohub,2013-03-30 04:10:00,
2013-03-30 00:15:00,49.5,31.1,30.12,North,354,0.0,0.0,49,0.00,,,0.00,meteohub,2013-03-30 04:15:00,
2013-03-30 00:20:00,48.6,33.1,30.12,North,354,0.0,0.0,55,0.00,,,0.00,meteohub,2013-03-30 04:20:00,
2013-03-30 00:25:00,49.6,34.5,30.12,North,354,0.0,0.0,56,0.00,,,0.00,meteohub,2013-03-30 04:25:00,
2013-03-30 00:30:00,50.7,33.8,30.12,North,354,0.0,0.0,52,0.00,,,0.00,meteohub,2013-03-30 04:30:00,
2013-03-30 00:35:00,50.4,34.3,30.12,North,354,0.0,0.0,54,0.00,,,0.00,meteohub,2013-03-30 04:35:00,
2013-03-30 00:40:00,49.8,32.0,30.12,North,354,0.0,1.0,50,0.00,,,0.00,meteohub,2013-03-30 04:40:00,
2013-03-30 00:45:00,48.4,31.6,30.12,North,354,0.0,1.0,52,0.00,,,0.00,meteohub,2013-03-30 04:45:00,
2013-03-30 00:50:00,47.5,31.3,30.12,North,354,0.0,1.0,53,0.00,,,0.00,meteohub,2013-03-30 04:50:00,
2013-03-30 00:55:00,46.9,32.0,30.12,North,354,0.0,0.0,56,0.00,,,0.00,meteohub,2013-03-30 04:55:00,
2013-03-30 01:00:00,48.0,34.9,30.12,North,354,0.0,1.0,60,0.00,,,0.00,meteohub,2013-03-30 05:00:00,
2013-03-30 01:05:00,48.9,32.5,30.12,North,354,0.0,1.0,53,0.00,,,0.00,meteohub,2013-03-30 05:05:00,
2013-03-30 01:10:00,48.0,34.0,30.12,North,354,0.0,1.0,58,0.00,,,0.00,meteohub,2013-03-30 05:10:00,
2013-03-30 01:15:00,48.7,33.8,30.12,North,354,0.0,0.0,56,0.00,,,0.00,meteohub,2013-03-30 05:15:00,
2013-03-30 01:20:00,47.8,32.0,30.12,North,354,0.0,0.0,54,0.00,,,0.00,meteohub,2013-03-30 05:20:00,
2013-03-30 01:25:00,47.8,34.7,30.12,North,354,0.0,0.0,60,0.00,,,0.00,meteohub,2013-03-30 05:25:00,
2013-03-30 01:30:00,48.9,35.6,30.12,North,354,0.0,0.0,60,0.00,,,0.00,meteohub,2013-03-30 05:30:00,
2013-03-30 01:36:00,48.9,33.1,30.12,North,354,0.0,0.0,54,0.00,,,0.00,meteohub,2013-03-30 05:36:00,
2013-03-30 01:41:00,47.7,31.8,30.12,North,354,0.0,0.0,54,0.00,,,0.00,meteohub,2013-03-30 05:41:00,
2013-03-30 01:46:00,46.6,33.4,30.12,North,354,0.0,0.0,60,0.00,,,0.00,meteohub,2013-03-30 05:46:00,
2013-03-30 01:51:00,47.5,34.7,30.12,North,354,0.0,0.0,61,0.00,,,0.00,meteohub,2013-03-30 05:51:00,
2013-03-30 01:56:00,48.0,34.3,30.12,NNW,342,0.0,1.0,59,0.00,,,0.00,meteohub,2013-03-30 05:56:00,
2013-03-30 02:01:00,47.8,32.0,30.12,NNW,342,0.0,1.0,54,0.00,,,0.00,meteohub,2013-03-30 06:01:00,
2013-03-30 02:06:00,46.6,31.6,30.12,NNW,343,0.0,1.0,56,0.00,,,0.00,meteohub,2013-03-30 06:06:00,
2013-03-30 02:11:00,45.7,31.8,30.12,NNW,343,0.0,0.0,58,0.00,,,0.00,meteohub,2013-03-30 06:11:00,
2013-03-30 02:16:00,45.0,32.0,30.12,NNW,343,0.0,0.0,60,0.00,,,0.00,meteohub,2013-03-30 06:16:00,
2013-03-30 02:21:00,44.6,32.0,30.12,NNW,343,0.0,0.0,61,0.00,,,0.00,meteohub,2013-03-30 06:21:00,
2013-03-30 02:26:00,44.2,32.4,30.12,NNW,343,0.0,0.0,63,0.00,,,0.00,meteohub,2013-03-30 06:26:00,
2013-03-30 02:31:00,44.1,32.7,30.12,NNW,343,0.0,0.0,64,0.00,,,0.00,meteohub,2013-03-30 06:31:00,
2013-03-30 02:36:00,44.4,34.5,30.12,NNW,343,0.0,0.0,68,0.00,,,0.00,meteohub,2013-03-30 06:36:00,
2013-03-30 02:41:00,45.5,35.6,30.12,NNW,343,0.0,0.0,68,0.00,,,0.00,meteohub,2013-03-30 06:41:00,
2013-03-30 02:46:00,46.2,34.7,30.12,NNW,342,0.0,0.0,64,0.00,,,0.00,meteohub,2013-03-30 06:46:00,
2013-03-30 02:51:00,47.7,36.1,30.12,NNW,342,0.0,0.0,64,0.00,,,0.00,meteohub,2013-03-30 06:51:00,
2013-03-30 02:56:00,48.4,35.6,30.12,NE,54,0.0,1.0,61,0.00,,,0.00,meteohub,2013-03-30 06:56:00,
2013-03-30 03:01:00,48.6,34.5,30.12,NE,53,0.0,1.0,58,0.00,,,0.00,meteohub,2013-03-30 07:01:00,
2013-03-30 03:06:00,47.1,35.6,30.12,NE,53,0.0,1.0,64,0.00,,,0.00,meteohub,2013-03-30 07:06:00,
2013-03-30 03:12:00,46.2,35.4,30.12,NE,54,0.0,1.0,66,0.00,,,0.00,meteohub,2013-03-30 07:12:00,
2013-03-30 03:17:00,47.7,36.5,30.12,ESE,117,0.0,1.0,65,0.00,,,0.00,meteohub,2013-03-30 07:17:00,
2013-03-30 03:22:00,48.0,36.0,30.12,SSW,213,1.0,1.0,63,0.00,,,0.00,meteohub,2013-03-30 07:22:00,
2013-03-30 03:27:00,46.9,36.1,30.12,SW,214,1.0,2.0,66,0.00,,,0.00,meteohub,2013-03-30 07:27:00,
2013-03-30 03:32:00,46.6,36.1,30.11,South,186,1.0,2.0,67,0.00,,,0.00,meteohub,2013-03-30 07:32:00,
2013-03-30 03:37:00,47.1,37.0,30.11,South,186,0.0,2.0,68,0.00,,,0.00,meteohub,2013-03-30 07:37:00,
2013-03-30 03:42:00,48.0,36.9,30.11,SW,236,1.0,2.0,65,0.00,,,0.00,meteohub,2013-03-30 07:42:00,
2013-03-30 03:47:00,48.0,36.5,30.11,SW,230,0.0,2.0,64,0.00,,,0.00,meteohub,2013-03-30 07:47:00,
2013-03-30 03:52:00,48.0,36.9,30.12,SW,231,0.0,1.0,65,0.00,,,0.00,meteohub,2013-03-30 07:52:00,
2013-03-30 03:57:00,48.0,36.0,30.12,SW,231,0.0,1.0,63,0.00,,,0.00,meteohub,2013-03-30 07:57:00,
2013-03-30 04:02:00,46.0,34.5,30.12,SW,231,0.0,0.0,64,0.00,,,0.00,meteohub,2013-03-30 08:02:00,
2013-03-30 04:07:00,44.6,35.4,30.12,SW,231,0.0,0.0,70,0.00,,,0.00,meteohub,2013-03-30 08:07:00,
2013-03-30 04:12:00,46.2,37.0,30.12,SW,231,0.0,0.0,70,0.00,,,0.00,meteohub,2013-03-30 08:12:00,
2013-03-30 04:17:00,45.7,35.1,30.12,SW,231,0.0,0.0,66,0.00,,,0.00,meteohub,2013-03-30 08:17:00,
2013-03-30 04:22:00,46.4,36.9,30.12,SW,231,0.0,0.0,69,0.00,,,0.00,meteohub,2013-03-30 08:22:00,
2013-03-30 04:27:00,47.8,37.0,30.11,SW,229,0.0,1.0,66,0.00,,,0.00,meteohub,2013-03-30 08:27:00,
2013-03-30 04:32:00,48.6,36.1,30.11,SSE,148,1.0,1.0,62,0.00,,,0.00,meteohub,2013-03-30 08:32:00,
2013-03-30 04:37:00,48.6,36.9,30.11,SSE,148,0.0,1.0,64,0.00,,,0.00,meteohub,2013-03-30 08:37:00,
2013-03-30 04:42:00,49.5,37.0,30.11,SSE,147,0.0,1.0,62,0.00,,,0.00,meteohub,2013-03-30 08:42:00,
2013-03-30 04:47:00,48.4,36.0,30.11,SE,141,1.0,1.0,62,0.00,,,0.00,meteohub,2013-03-30 08:47:00,
2013-03-30 04:52:00,47.8,36.3,30.11,SE,142,0.0,1.0,64,0.00,,,0.00,meteohub,2013-03-30 08:52:00,
2013-03-30 04:57:00,47.8,35.8,30.12,SE,142,0.0,1.0,63,0.00,,,0.00,meteohub,2013-03-30 08:57:00,
2013-03-30 05:02:00,46.0,36.1,30.12,SE,142,0.0,1.0,68,0.00,,,0.00,meteohub,2013-03-30 09:02:00,
2013-03-30 05:07:00,47.3,37.2,30.12,SE,142,0.0,1.0,68,0.00,,,0.00,meteohub,2013-03-30 09:07:00,
2013-03-30 05:12:00,46.2,35.4,30.11,SE,125,0.0,1.0,66,0.00,,,0.00,meteohub,2013-03-30 09:12:00,
2013-03-30 05:17:00,46.8,37.2,30.11,SE,125,0.0,1.0,69,0.00,,,0.00,meteohub,2013-03-30 09:17:00,
2013-03-30 05:22:00,46.2,35.4,30.12,SE,126,0.0,1.0,66,0.00,,,0.00,meteohub,2013-03-30 09:22:00,
2013-03-30 05:27:00,46.0,36.9,30.12,SE,125,0.0,1.0,70,0.00,,,0.00,meteohub,2013-03-30 09:27:00,
2013-03-30 05:32:00,47.1,36.3,30.12,SE,126,0.0,1.0,66,0.00,,,0.00,meteohub,2013-03-30 09:32:00,
2013-03-30 05:34:00,46.9,35.8,30.12,SE,126,0.0,1.0,65,0.00,,,0.00,meteohub,2013-03-30 09:34:00,
2013-03-30 05:39:00,45.5,36.0,30.12,SE,124,1.0,1.0,69,0.00,,,0.00,meteohub,2013-03-30 09:39:00,
2013-03-30 05:44:00,46.0,36.9,30.12,SE,126,0.0,1.0,70,0.00,,,0.00,meteohub,2013-03-30 09:44:00,
2013-03-30 05:49:00,46.8,36.0,30.12,SE,125,1.0,1.0,66,0.00,,,0.00,meteohub,2013-03-30 09:49:00,
2013-03-30 05:54:00,46.4,36.5,30.12,SE,125,0.0,1.0,68,0.00,,,0.00,meteohub,2013-03-30 09:54:00,
2013-03-30 05:59:00,46.9,36.5,30.12,SE,126,0.0,1.0,67,0.00,,,0.00,meteohub,2013-03-30 09:59:00,
2013-03-30 06:04:00,47.5,36.7,30.12,SE,126,0.0,1.0,66,0.00,,,0.00,meteohub,2013-03-30 10:04:00,
2013-03-30 06:09:00,46.4,34.9,30.12,SE,126,0.0,1.0,64,0.00,,,0.00,meteohub,2013-03-30 10:09:00,
2013-03-30 06:14:00,45.0,34.7,30.12,SE,126,0.0,1.0,67,0.00,,,0.00,meteohub,2013-03-30 10:14:00,
2013-03-30 06:19:00,44.2,35.1,30.12,SE,125,0.0,1.0,70,0.00,,,0.00,meteohub,2013-03-30 10:19:00,
2013-03-30 06:24:00,45.0,35.4,30.12,SE,126,0.0,1.0,69,0.00,,,0.00,meteohub,2013-03-30 10:24:00,
2013-03-30 06:29:00,44.2,35.1,30.12,SE,125,0.0,0.0,70,0.00,,,0.00,meteohub,2013-03-30 10:29:00,
2013-03-30 06:34:00,45.0,35.8,30.13,SE,134,2.0,2.0,70,0.00,,,0.00,meteohub,2013-03-30 10:34:00,
2013-03-30 06:39:00,45.3,35.8,30.12,SE,145,0.0,2.0,69,0.00,,,0.00,meteohub,2013-03-30 10:39:00,
2013-03-30 06:44:00,46.4,36.0,30.13,SE,124,3.0,3.0,67,0.00,,,0.00,meteohub,2013-03-30 10:44:00,
2013-03-30 06:49:00,45.7,35.1,30.13,SE,128,0.0,3.0,66,0.00,,,0.00,meteohub,2013-03-30 10:49:00,
2013-03-30 06:54:00,45.5,34.9,30.13,ESE,111,1.0,3.0,66,0.00,,,0.00,meteohub,2013-03-30 10:54:00,
2013-03-30 06:59:00,45.0,34.3,30.13,East,89,1.0,3.0,66,0.00,,,0.00,meteohub,2013-03-30 10:59:00,
2013-03-30 07:04:00,44.2,34.3,30.14,ESE,118,2.0,2.0,68,0.00,,,0.00,meteohub,2013-03-30 11:04:00,
2013-03-30 07:09:00,44.6,34.3,30.13,SE,128,0.0,3.0,67,0.00,,,0.00,meteohub,2013-03-30 11:09:00,
2013-03-30 07:14:00,44.8,34.5,30.14,SSE,147,0.0,3.0,67,0.00,,,0.00,meteohub,2013-03-30 11:14:00,
2013-03-30 07:19:00,43.7,33.8,30.14,NE,41,0.0,2.0,68,0.00,,,0.00,meteohub,2013-03-30 11:19:00,
2013-03-30 07:24:00,43.2,33.6,30.14,NE,42,0.0,2.0,69,0.00,,,0.00,meteohub,2013-03-30 11:24:00,
2013-03-30 07:29:00,44.6,35.8,30.14,NE,44,0.0,2.0,71,0.00,,,0.00,meteohub,2013-03-30 11:29:00,
2013-03-30 07:34:00,45.3,35.1,30.14,NE,44,0.0,2.0,67,0.00,,,0.00,meteohub,2013-03-30 11:34:00,
2013-03-30 07:39:00,44.4,34.2,30.15,NNW,331,1.0,0.0,67,0.00,,,0.00,meteohub,2013-03-30 11:39:00,
2013-03-30 07:44:00,44.1,34.9,30.15,NNW,334,0.0,3.0,70,0.00,,,0.00,meteohub,2013-03-30 11:44:00,
2013-03-30 07:49:00,44.8,34.9,30.15,SE,145,0.0,4.0,68,0.00,,,0.00,meteohub,2013-03-30 11:49:00,
2013-03-30 07:54:00,44.2,34.0,30.15,NE,49,1.0,4.0,67,0.00,,,0.00,meteohub,2013-03-30 11:54:00,
2013-03-30 07:59:00,43.9,33.6,30.15,NNW,330,0.0,1.0,67,0.00,,,0.00,meteohub,2013-03-30 11:59:00,
2013-03-30 08:04:00,45.0,35.4,30.15,NNW,329,0.0,1.0,69,0.00,,,0.00,meteohub,2013-03-30 12:04:00,
2013-03-30 08:09:00,45.9,34.0,30.15,NNW,332,1.0,2.0,63,0.00,,,0.00,meteohub,2013-03-30 12:09:00,
2013-03-30 08:14:00,46.0,34.9,30.15,ENE,72,0.0,2.0,65,0.00,,,0.00,meteohub,2013-03-30 12:14:00,
2013-03-30 08:19:00,47.8,35.4,30.15,SSE,162,0.0,1.0,62,0.00,,,0.00,meteohub,2013-03-30 12:19:00,
2013-03-30 08:24:00,48.9,35.2,30.15,SSE,150,0.0,1.0,59,0.00,,,0.00,meteohub,2013-03-30 12:24:00,
2013-03-30 08:29:00,48.7,33.8,30.16,WSW,246,2.0,2.0,56,0.00,,,0.00,meteohub,2013-03-30 12:29:00,
2013-03-30 08:35:00,48.0,33.1,30.15,WNW,301,1.0,1.0,56,0.00,,,0.00,meteohub,2013-03-30 12:35:00,
2013-03-30 08:40:00,47.7,31.8,30.15,NE,41,0.0,2.0,54,0.00,,,0.00,meteohub,2013-03-30 12:40:00,
2013-03-30 08:45:00,47.5,30.7,30.15,NNW,335,1.0,2.0,52,0.00,,,0.00,meteohub,2013-03-30 12:45:00,
2013-03-30 08:50:00,47.5,30.2,30.15,NNE,15,1.0,3.0,51,0.00,,,0.00,meteohub,2013-03-30 12:50:00,
2013-03-30 08:55:00,47.5,30.2,30.16,NNW,340,3.0,3.0,51,0.00,,,0.00,meteohub,2013-03-30 12:55:00,
2013-03-30 09:00:00,47.7,30.4,30.16,NNW,333,3.0,3.0,51,0.00,,,0.00,meteohub,2013-03-30 13:00:00,
2013-03-30 09:05:00,48.2,30.4,30.15,NNE,23,0.0,4.0,50,0.00,,,0.00,meteohub,2013-03-30 13:05:00,
2013-03-30 09:10:00,48.7,30.9,30.15,NNW,340,0.0,4.0,50,0.00,,,0.00,meteohub,2013-03-30 13:10:00,
2013-03-30 09:15:00,48.9,30.6,30.15,NE,37,2.0,4.0,49,0.00,,,0.00,meteohub,2013-03-30 13:15:00,
2013-03-30 09:20:00,49.8,30.9,30.15,NNW,348,0.0,4.0,48,0.00,,,0.00,meteohub,2013-03-30 13:20:00,
2013-03-30 09:25:00,50.4,30.9,30.15,NNE,25,0.0,2.0,47,0.00,,,0.00,meteohub,2013-03-30 13:25:00,
2013-03-30 09:30:00,50.4,30.9,30.15,NW,326,2.0,3.0,47,0.00,,,0.00,meteohub,2013-03-30 13:30:00,
2013-03-30 09:35:00,50.2,30.7,30.15,WNW,290,2.0,3.0,47,0.00,,,0.00,meteohub,2013-03-30 13:35:00,
2013-03-30 09:40:00,50.2,30.7,30.15,NNW,348,2.0,4.0,47,0.00,,,0.00,meteohub,2013-03-30 13:40:00,
2013-03-30 09:45:00,50.7,31.3,30.15,NNW,334,0.0,4.0,47,0.00,,,0.00,meteohub,2013-03-30 13:45:00,
2013-03-30 09:50:00,51.6,31.5,30.15,NE,46,2.0,4.0,46,0.00,,,0.00,meteohub,2013-03-30 13:50:00,
2013-03-30 09:55:00,52.0,30.7,30.15,NNE,32,2.0,3.0,44,0.00,,,0.00,meteohub,2013-03-30 13:55:00,
2013-03-30 10:00:00,52.3,31.6,30.15,NNW,335,2.0,3.0,45,0.00,,,0.00,meteohub,2013-03-30 14:00:00,
2013-03-30 10:05:00,52.5,30.7,30.15,NW,314,0.0,4.0,43,0.00,,,0.00,meteohub,2013-03-30 14:05:00,
2013-03-30 10:10:00,52.5,30.7,30.15,NNW,329,1.0,4.0,43,0.00,,,0.00,meteohub,2013-03-30 14:10:00,
2013-03-30 10:15:00,52.9,31.6,30.15,WNW,292,0.0,4.0,44,0.00,,,0.00,meteohub,2013-03-30 14:15:00,
2013-03-30 10:20:00,53.4,30.9,30.15,NE,41,2.0,4.0,42,0.00,,,0.00,meteohub,2013-03-30 14:20:00,
2013-03-30 10:25:00,54.0,30.7,30.15,NW,321,1.0,4.0,41,0.00,,,0.00,meteohub,2013-03-30 14:25:00,
2013-03-30 10:30:00,53.8,30.0,30.15,NNW,335,1.0,3.0,40,0.00,,,0.00,meteohub,2013-03-30 14:30:00,
2013-03-30 10:35:00,54.0,30.2,30.15,NNW,338,2.0,3.0,40,0.00,,,0.00,meteohub,2013-03-30 14:35:00,
2013-03-30 10:40:00,54.3,29.8,30.15,WSW,249,0.0,5.0,39,0.00,,,0.00,meteohub,2013-03-30 14:40:00,
2013-03-30 10:45:00,55.4,31.5,30.14,WNW,300,0.0,5.0,40,0.00,,,0.00,meteohub,2013-03-30 14:45:00,
2013-03-30 10:50:00,55.8,30.6,30.15,SSE,156,1.0,5.0,38,0.00,,,0.00,meteohub,2013-03-30 14:50:00,
2013-03-30 10:55:00,56.7,30.7,30.14,SE,139,1.0,5.0,37,0.00,,,0.00,meteohub,2013-03-30 14:55:00,
2013-03-30 11:00:00,56.8,30.9,30.14,SSW,205,1.0,5.0,37,0.00,,,0.00,meteohub,2013-03-30 15:00:00,
2013-03-30 11:05:00,56.7,30.0,30.14,NE,42,0.0,4.0,36,0.00,,,0.00,meteohub,2013-03-30 15:05:00,
2013-03-30 11:10:00,57.0,30.9,30.14,SW,226,5.0,7.0,37,0.00,,,0.00,meteohub,2013-03-30 15:10:00,
2013-03-30 11:15:00,57.4,31.3,30.14,SW,221,4.0,7.0,37,0.00,,,0.00,meteohub,2013-03-30 15:15:00,
2013-03-30 11:20:00,57.6,31.5,30.14,ESE,118,2.0,7.0,37,0.00,,,0.00,meteohub,2013-03-30 15:20:00,
2013-03-30 11:25:00,57.7,29.5,30.14,ENE,70,3.0,6.0,34,0.00,,,0.00,meteohub,2013-03-30 15:25:00,
2013-03-30 11:31:00,56.8,30.2,30.13,NE,46,1.0,6.0,36,0.00,,,0.00,meteohub,2013-03-30 15:31:00,
2013-03-30 11:36:00,58.6,31.1,30.13,South,187,2.0,7.0,35,0.00,,,0.00,meteohub,2013-03-30 15:36:00,
2013-03-30 11:41:00,59.2,30.0,30.13,NW,305,0.0,7.0,33,0.00,,,0.00,meteohub,2013-03-30 15:41:00,
2013-03-30 11:46:00,59.0,32.0,30.13,NE,56,2.0,7.0,36,0.00,,,0.00,meteohub,2013-03-30 15:46:00,
2013-03-30 11:51:00,58.3,27.0,30.13,NE,43,4.0,7.0,30,0.00,,,0.00,meteohub,2013-03-30 15:51:00,
2013-03-30 11:56:00,56.5,25.3,30.12,NNW,338,4.0,10.0,30,0.00,,,0.00,meteohub,2013-03-30 15:56:00,
2013-03-30 12:01:00,55.6,23.9,30.12,North,349,5.0,10.0,29,0.00,,,0.00,meteohub,2013-03-30 16:01:00,
2013-03-30 12:06:00,55.4,24.4,30.12,NNW,333,2.0,10.0,30,0.00,,,0.00,meteohub,2013-03-30 16:06:00,
2013-03-30 12:11:00,55.6,25.3,30.12,NNW,342,4.0,9.0,31,0.00,,,0.00,meteohub,2013-03-30 16:11:00,
2013-03-30 12:16:00,56.1,24.3,30.12,NNW,338,6.0,9.0,29,0.00,,,0.00,meteohub,2013-03-30 16:16:00,
2013-03-30 12:21:00,56.8,25.7,30.12,NNW,329,4.0,9.0,30,0.00,,,0.00,meteohub,2013-03-30 16:21:00,
2013-03-30 12:26:00,57.0,25.9,30.12,NW,305,2.0,9.0,30,0.00,,,0.00,meteohub,2013-03-30 16:26:00,
2013-03-30 12:32:00,57.2,25.2,30.12,West,262,5.0,9.0,29,0.00,,,0.00,meteohub,2013-03-30 16:32:00,
2013-03-30 12:37:00,57.0,25.0,30.11,North,10,4.0,12.0,29,0.00,,,0.00,meteohub,2013-03-30 16:37:00,
2013-03-30 12:42:00,57.0,25.0,30.11,NNW,342,7.0,12.0,29,0.00,,,0.00,meteohub,2013-03-30 16:42:00,
2013-03-30 12:47:00,56.8,26.6,30.11,WNW,291,7.0,12.0,31,0.00,,,0.00,meteohub,2013-03-30 16:47:00,
2013-03-30 12:52:00,57.4,27.7,30.11,WSW,242,6.0,9.0,32,0.00,,,0.00,meteohub,2013-03-30 16:52:00,
2013-03-30 12:57:00,57.9,26.6,30.11,SW,215,5.0,9.0,30,0.00,,,0.00,meteohub,2013-03-30 16:57:00,
2013-03-30 13:02:00,58.1,26.8,30.11,SW,233,4.0,10.0,30,0.00,,,0.00,meteohub,2013-03-30 17:02:00,
2013-03-30 13:07:00,57.6,25.5,30.11,SW,234,1.0,10.0,29,0.00,,,0.00,meteohub,2013-03-30 17:07:00,
2013-03-30 13:12:00,57.6,27.1,30.11,SSE,155,5.0,10.0,31,0.00,,,0.00,meteohub,2013-03-30 17:12:00,
2013-03-30 13:17:00,58.5,26.2,30.10,SSW,194,0.0,10.0,29,0.00,,,0.00,meteohub,2013-03-30 17:17:00,
2013-03-30 13:22:00,58.1,26.1,30.10,NW,325,3.0,8.0,29,0.00,,,0.00,meteohub,2013-03-30 17:22:00,
2013-03-30 13:27:00,58.3,26.2,30.10,NNW,347,5.0,11.0,29,0.00,,,0.00,meteohub,2013-03-30 17:27:00,
2013-03-30 13:32:00,57.7,25.7,30.10,NW,317,6.0,12.0,29,0.00,,,0.00,meteohub,2013-03-30 17:32:00,
2013-03-30 13:37:00,57.6,25.5,30.10,WNW,300,3.0,12.0,29,0.00,,,0.00,meteohub,2013-03-30 17:37:00,
2013-03-30 13:42:00,57.6,25.5,30.09,NW,307,5.0,12.0,29,0.00,,,0.00,meteohub,2013-03-30 17:42:00,
2013-03-30 13:47:00,57.9,26.6,30.09,NNW,329,5.0,9.0,30,0.00,,,0.00,meteohub,2013-03-30 17:47:00,
2013-03-30 13:52:00,57.7,26.4,30.09,NW,321,4.0,8.0,30,0.00,,,0.00,meteohub,2013-03-30 17:52:00,
2013-03-30 13:57:00,57.4,26.2,30.09,NW,323,5.0,8.0,30,0.00,,,0.00,meteohub,2013-03-30 17:57:00,
2013-03-30 14:02:00,57.9,26.6,30.09,SW,236,2.0,9.0,30,0.00,,,0.00,meteohub,2013-03-30 18:02:00,
2013-03-30 14:07:00,58.6,27.3,30.08,NW,304,8.0,9.0,30,0.00,,,0.00,meteohub,2013-03-30 18:07:00,
2013-03-30 14:12:00,58.5,26.2,30.08,NNW,338,2.0,9.0,29,0.00,,,0.00,meteohub,2013-03-30 18:12:00,
2013-03-30 14:17:00,58.3,26.2,30.08,WSW,257,4.0,10.0,29,0.00,,,0.00,meteohub,2013-03-30 18:17:00,
2013-03-30 14:23:00,57.7,26.4,30.08,WNW,288,3.0,10.0,30,0.00,,,0.00,meteohub,2013-03-30 18:23:00,
2013-03-30 14:28:00,58.1,27.7,30.08,SSW,203,6.0,12.0,31,0.00,,,0.00,meteohub,2013-03-30 18:28:00,
2013-03-30 14:33:00,58.8,26.6,30.08,SW,234,4.0,12.0,29,0.00,,,0.00,meteohub,2013-03-30 18:33:00,
2013-03-30 14:38:00,59.9,26.8,30.07,SSW,194,3.0,10.0,28,0.00,,,0.00,meteohub,2013-03-30 18:38:00,
2013-03-30 14:43:00,60.3,26.1,30.07,SW,226,2.0,10.0,27,0.00,,,0.00,meteohub,2013-03-30 18:43:00,
2013-03-30 14:48:00,60.1,26.1,30.06,WSW,257,4.0,11.0,27,0.00,,,0.00,meteohub,2013-03-30 18:48:00,
2013-03-30 14:53:00,59.7,26.6,30.06,NNW,338,1.0,11.0,28,0.00,,,0.00,meteohub,2013-03-30 18:53:00,
2013-03-30 14:58:00,59.7,27.3,30.06,North,8,1.0,9.0,29,0.00,,,0.00,meteohub,2013-03-30 18:58:00,
2013-03-30 15:03:00,60.1,26.1,30.06,ENE,72,1.0,9.0,27,0.00,,,0.00,meteohub,2013-03-30 19:03:00,
2013-03-30 15:08:00,59.5,25.5,30.06,NNW,340,5.0,6.0,27,0.00,,,0.00,meteohub,2013-03-30 19:08:00,
2013-03-30 15:13:00,59.0,25.0,30.06,WNW,300,7.0,11.0,27,0.00,,,0.00,meteohub,2013-03-30 19:13:00,
2013-03-30 15:18:00,58.5,25.5,30.06,WNW,286,2.0,11.0,28,0.00,,,0.00,meteohub,2013-03-30 19:18:00,
2013-03-30 15:23:00,59.4,26.2,30.06,West,259,2.0,11.0,28,0.00,,,0.00,meteohub,2013-03-30 19:23:00,
2013-03-30 15:28:00,60.1,25.2,30.06,South,186,0.0,8.0,26,0.00,,,0.00,meteohub,2013-03-30 19:28:00,
2013-03-30 15:33:00,60.8,25.7,30.05,WSW,256,2.0,7.0,26,0.00,,,0.00,meteohub,2013-03-30 19:33:00,
2013-03-30 15:38:00,61.3,26.2,30.05,West,263,1.0,7.0,26,0.00,,,0.00,meteohub,2013-03-30 19:38:00,
2013-03-30 15:43:00,61.2,25.0,30.05,WNW,300,3.0,7.0,25,0.00,,,0.00,meteohub,2013-03-30 19:43:00,
2013-03-30 15:48:00,60.3,23.4,30.05,West,262,3.0,8.0,24,0.00,,,0.00,meteohub,2013-03-30 19:48:00,
2013-03-30 15:53:00,60.8,23.7,30.06,NNW,330,6.0,8.0,24,0.00,,,0.00,meteohub,2013-03-30 19:53:00,
2013-03-30 15:58:00,60.1,25.2,30.06,NNW,337,6.0,8.0,26,0.00,,,0.00,meteohub,2013-03-30 19:58:00,
2013-03-30 16:03:00,59.7,23.9,30.06,WSW,253,2.0,9.0,25,0.00,,,0.00,meteohub,2013-03-30 20:03:00,
2013-03-30 16:08:00,59.9,25.0,30.06,West,262,6.0,9.0,26,0.00,,,0.00,meteohub,2013-03-30 20:08:00,
2013-03-30 16:13:00,60.3,23.4,30.06,WNW,302,5.0,8.0,24,0.00,,,0.00,meteohub,2013-03-30 20:13:00,
2013-03-30 16:18:00,60.4,23.5,30.06,North,349,2.0,9.0,24,0.00,,,0.00,meteohub,2013-03-30 20:18:00,
2013-03-30 16:23:00,60.6,23.5,30.06,SSE,163,5.0,11.0,24,0.00,,,0.00,meteohub,2013-03-30 20:23:00,
2013-03-30 16:28:00,60.4,22.5,30.05,SW,233,0.0,11.0,23,0.00,,,0.00,meteohub,2013-03-30 20:28:00,
2013-03-30 16:33:00,60.1,22.1,30.05,NW,312,3.0,13.0,23,0.00,,,0.00,meteohub,2013-03-30 20:33:00,
2013-03-30 16:38:00,60.3,22.3,30.05,NW,311,5.0,13.0,23,0.00,,,0.00,meteohub,2013-03-30 20:38:00,
2013-03-30 16:43:00,60.1,21.0,30.05,NNW,338,5.0,9.0,22,0.00,,,0.00,meteohub,2013-03-30 20:43:00,
2013-03-30 16:48:00,59.9,21.9,30.05,WNW,295,2.0,9.0,23,0.00,,,0.00,meteohub,2013-03-30 20:48:00,
2013-03-30 16:53:00,60.3,22.3,30.05,WNW,283,0.0,9.0,23,0.00,,,0.00,meteohub,2013-03-30 20:53:00,
2013-03-30 16:58:00,60.6,22.6,30.05,WNW,297,3.0,10.0,23,0.00,,,0.00,meteohub,2013-03-30 20:58:00,
2013-03-30 17:03:00,60.4,22.5,30.05,WNW,291,7.0,10.0,23,0.00,,,0.00,meteohub,2013-03-30 21:03:00,
2013-03-30 17:09:00,60.1,23.2,30.04,ENE,64,1.0,10.0,24,0.00,,,0.00,meteohub,2013-03-30 21:09:00,
2013-03-30 17:14:00,60.1,23.2,30.04,NW,324,3.0,9.0,24,0.00,,,0.00,meteohub,2013-03-30 21:14:00,
2013-03-30 17:19:00,60.3,23.4,30.04,WNW,302,4.0,9.0,24,0.00,,,0.00,meteohub,2013-03-30 21:19:00,
2013-03-30 17:24:00,60.3,23.4,30.04,WNW,298,3.0,11.0,24,0.00,,,0.00,meteohub,2013-03-30 21:24:00,
2013-03-30 17:29:00,60.3,23.4,30.04,WNW,301,3.0,11.0,24,0.00,,,0.00,meteohub,2013-03-30 21:29:00,
2013-03-30 17:34:00,60.4,22.5,30.04,WSW,246,0.0,11.0,23,0.00,,,0.00,meteohub,2013-03-30 21:34:00,
2013-03-30 17:39:00,61.3,23.2,30.04,SSE,160,3.0,6.0,23,0.00,,,0.00,meteohub,2013-03-30 21:39:00,
2013-03-30 17:44:00,61.0,21.9,30.04,NNW,329,4.0,8.0,22,0.00,,,0.00,meteohub,2013-03-30 21:44:00,
2013-03-30 17:49:00,60.1,21.0,30.04,NW,304,3.0,9.0,22,0.00,,,0.00,meteohub,2013-03-30 21:49:00,
2013-03-30 17:54:00,60.3,21.2,30.04,West,272,3.0,9.0,22,0.00,,,0.00,meteohub,2013-03-30 21:54:00,
2013-03-30 17:59:00,60.1,21.0,30.04,NW,311,8.0,9.0,22,0.00,,,0.00,meteohub,2013-03-30 21:59:00,
2013-03-30 18:04:00,60.3,27.0,30.04,SSW,199,0.0,7.0,28,0.00,,,0.00,meteohub,2013-03-30 22:04:00,
2013-03-30 18:09:00,61.2,21.9,30.04,NNW,334,3.0,10.0,22,0.00,,,0.00,meteohub,2013-03-30 22:09:00,
2013-03-30 18:14:00,60.4,21.4,30.04,NNW,342,1.0,10.0,22,0.00,,,0.00,meteohub,2013-03-30 22:14:00,
2013-03-30 18:19:00,60.1,22.1,30.04,WNW,303,1.0,6.0,23,0.00,,,0.00,meteohub,2013-03-30 22:19:00,
2013-03-30 18:24:00,59.9,23.0,30.04,NNW,338,4.0,6.0,24,0.00,,,0.00,meteohub,2013-03-30 22:24:00,
2013-03-30 18:29:00,59.5,22.6,30.04,North,356,5.0,6.0,24,0.00,,,0.00,meteohub,2013-03-30 22:29:00,
2013-03-30 18:34:00,59.4,23.5,30.04,North,352,0.0,9.0,25,0.00,,,0.00,meteohub,2013-03-30 22:34:00,
2013-03-30 18:39:00,59.4,23.5,30.04,WNW,293,4.0,9.0,25,0.00,,,0.00,meteohub,2013-03-30 22:39:00,
2013-03-30 18:44:00,59.0,23.2,30.04,NNW,327,1.0,9.0,25,0.00,,,0.00,meteohub,2013-03-30 22:44:00,
2013-03-30 18:49:00,59.2,27.0,30.04,SW,219,0.0,9.0,29,0.00,,,0.00,meteohub,2013-03-30 22:49:00,
2013-03-30 18:54:00,59.0,23.2,30.04,West,281,5.0,9.0,25,0.00,,,0.00,meteohub,2013-03-30 22:54:00,
2013-03-30 18:59:00,58.5,23.7,30.04,NNW,341,2.0,4.0,26,0.00,,,0.00,meteohub,2013-03-30 22:59:00,
2013-03-30 19:04:00,58.1,23.4,30.04,NNW,338,3.0,5.0,26,0.00,,,0.00,meteohub,2013-03-30 23:04:00,
2013-03-30 19:09:00,57.7,23.9,30.04,WNW,292,1.0,7.0,27,0.00,,,0.00,meteohub,2013-03-30 23:09:00,
2013-03-30 19:14:00,57.6,23.9,30.04,North,349,3.0,7.0,27,0.00,,,0.00,meteohub,2013-03-30 23:14:00,
2013-03-30 19:19:00,57.6,23.9,30.04,NNW,333,3.0,7.0,27,0.00,,,0.00,meteohub,2013-03-30 23:19:00,
2013-03-30 19:24:00,57.4,23.7,30.04,North,5,1.0,5.0,27,0.00,,,0.00,meteohub,2013-03-30 23:24:00,
2013-03-30 19:29:00,57.0,24.3,30.04,NNW,343,1.0,5.0,28,0.00,,,0.00,meteohub,2013-03-30 23:29:00,
2013-03-30 19:34:00,57.0,24.3,30.04,NW,305,1.0,4.0,28,0.00,,,0.00,meteohub,2013-03-30 23:34:00,
2013-03-30 19:39:00,57.0,24.3,30.04,NNW,335,0.0,3.0,28,0.00,,,0.00,meteohub,2013-03-30 23:39:00,
2013-03-30 19:44:00,56.8,24.1,30.04,NW,315,1.0,3.0,28,0.00,,,0.00,meteohub,2013-03-30 23:44:00,
2013-03-30 19:49:00,56.8,24.1,30.04,NNW,338,1.0,3.0,28,0.00,,,0.00,meteohub,2013-03-30 23:49:00,
2013-03-30 19:54:00,56.7,23.9,30.04,NNW,348,1.0,2.0,28,0.00,,,0.00,meteohub,2013-03-30 23:54:00,
2013-03-30 19:59:00,56.5,23.7,30.04,NNE,25,0.0,2.0,28,0.00,,,0.00,meteohub,2013-03-30 23:59:00,
2013-03-30 20:05:00,56.1,24.3,30.04,North,352,2.0,2.0,29,0.00,,,0.00,meteohub,2013-03-31 00:05:00,
2013-03-30 20:10:00,56.1,24.3,30.05,North,352,2.0,2.0,29,0.00,,,0.00,meteohub,2013-03-31 00:10:00,
2013-03-30 20:15:00,56.1,24.3,30.05,North,359,1.0,2.0,29,0.00,,,0.00,meteohub,2013-03-31 00:15:00,
2013-03-30 20:20:00,55.9,24.1,30.05,North,0,0.0,3.0,29,0.00,,,0.00,meteohub,2013-03-31 00:20:00,
2013-03-30 20:25:00,55.6,24.6,30.05,NNE,13,1.0,3.0,30,0.00,,,0.00,meteohub,2013-03-31 00:25:00,
2013-03-30 20:30:00,55.4,24.4,30.05,NNE,27,0.0,3.0,30,0.00,,,0.00,meteohub,2013-03-31 00:30:00,
2013-03-30 20:35:00,55.6,25.3,30.05,ENE,77,0.0,2.0,31,0.00,,,0.00,meteohub,2013-03-31 00:35:00,
2013-03-30 20:40:00,55.8,28.6,30.06,ENE,77,0.0,2.0,35,0.00,,,0.00,meteohub,2013-03-31 00:40:00,
2013-03-30 20:45:00,55.8,27.9,30.06,East,101,1.0,1.0,34,0.00,,,0.00,meteohub,2013-03-31 00:45:00,
2013-03-30 20:50:00,55.6,27.0,30.06,ESE,118,0.0,1.0,33,0.00,,,0.00,meteohub,2013-03-31 00:50:00,
2013-03-30 20:55:00,55.0,29.3,30.06,ESE,118,0.0,1.0,37,0.00,,,0.00,meteohub,2013-03-31 00:55:00,
2013-03-30 21:00:00,54.5,27.3,30.06,NNE,32,0.0,1.0,35,0.00,,,0.00,meteohub,2013-03-31 01:00:00,
2013-03-30 21:05:00,54.7,30.2,30.06,ENE,62,0.0,1.0,39,0.00,,,0.00,meteohub,2013-03-31 01:05:00,
2013-03-30 21:10:00,54.5,26.1,30.06,ESE,116,0.0,1.0,33,0.00,,,0.00,meteohub,2013-03-31 01:10:00,
2013-03-30 21:15:00,54.0,26.2,30.06,ESE,115,0.0,1.0,34,0.00,,,0.00,meteohub,2013-03-31 01:15:00,
2013-03-30 21:20:00,54.0,28.9,30.06,ESE,104,0.0,1.0,38,0.00,,,0.00,meteohub,2013-03-31 01:20:00,
2013-03-30 21:25:00,53.8,26.8,30.06,East,98,1.0,2.0,35,0.00,,,0.00,meteohub,2013-03-31 01:25:00,
2013-03-30 21:30:00,53.4,26.4,30.06,SE,134,2.0,2.0,35,0.00,,,0.00,meteohub,2013-03-31 01:30:00,
2013-03-30 21:35:00,53.4,27.1,30.07,SE,138,1.0,2.0,36,0.00,,,0.00,meteohub,2013-03-31 01:35:00,
2013-03-30 21:40:00,53.2,26.2,30.07,ENE,70,0.0,3.0,35,0.00,,,0.00,meteohub,2013-03-31 01:40:00,
2013-03-30 21:45:00,53.1,26.8,30.06,ESE,122,3.0,4.0,36,0.00,,,0.00,meteohub,2013-03-31 01:45:00,
2013-03-30 21:50:00,52.9,27.3,30.07,SE,142,2.0,5.0,37,0.00,,,0.00,meteohub,2013-03-31 01:50:00,
2013-03-30 21:55:00,52.9,27.3,30.07,SE,141,2.0,5.0,37,0.00,,,0.00,meteohub,2013-03-31 01:55:00,
2013-03-30 22:00:00,52.5,27.7,30.07,SSE,153,0.0,5.0,38,0.00,,,0.00,meteohub,2013-03-31 02:00:00,
2013-03-30 22:05:00,52.5,28.2,30.07,SE,124,0.0,5.0,39,0.00,,,0.00,meteohub,2013-03-31 02:05:00,
2013-03-30 22:10:00,52.5,28.9,30.07,ESE,122,2.0,4.0,40,0.00,,,0.00,meteohub,2013-03-31 02:10:00,
2013-03-30 22:15:00,52.3,28.0,30.07,SSE,164,3.0,4.0,39,0.00,,,0.00,meteohub,2013-03-31 02:15:00,
2013-03-30 22:20:00,52.2,29.1,30.07,SE,142,3.0,4.0,41,0.00,,,0.00,meteohub,2013-03-31 02:20:00,
2013-03-30 22:25:00,52.2,28.6,30.07,ESE,122,0.0,6.0,40,0.00,,,0.00,meteohub,2013-03-31 02:25:00,
2013-03-30 22:30:00,52.2,29.8,30.07,SSE,148,1.0,6.0,42,0.00,,,0.00,meteohub,2013-03-31 02:30:00,
2013-03-30 22:35:00,52.0,28.4,30.06,SE,131,1.0,4.0,40,0.00,,,0.00,meteohub,2013-03-31 02:35:00,
2013-03-30 22:40:00,52.0,28.9,30.07,SE,124,2.0,5.0,41,0.00,,,0.00,meteohub,2013-03-31 02:40:00,
2013-03-30 22:45:00,51.8,28.8,30.07,SE,145,2.0,5.0,41,0.00,,,0.00,meteohub,2013-03-31 02:45:00,
2013-03-30 22:50:00,51.6,28.8,30.06,SW,225,2.0,5.0,41,0.00,,,0.00,meteohub,2013-03-31 02:50:00,
2013-03-30 22:55:00,51.4,29.1,30.06,SE,138,5.0,5.0,42,0.00,,,0.00,meteohub,2013-03-31 02:55:00,
2013-03-30 23:00:00,51.4,29.1,30.06,SE,146,6.0,6.0,42,0.00,,,0.00,meteohub,2013-03-31 03:00:00,
2013-03-30 23:05:00,51.3,28.9,30.06,SSE,153,4.0,6.0,42,0.00,,,0.00,meteohub,2013-03-31 03:05:00,
2013-03-30 23:10:00,51.3,28.9,30.06,SE,127,2.0,7.0,42,0.00,,,0.00,meteohub,2013-03-31 03:10:00,
2013-03-30 23:15:00,51.3,29.5,30.06,SSW,200,3.0,8.0,43,0.00,,,0.00,meteohub,2013-03-31 03:15:00,
2013-03-30 23:20:00,51.4,30.2,30.06,SE,125,2.0,8.0,44,0.00,,,0.00,meteohub,2013-03-31 03:20:00,
2013-03-30 23:25:00,51.3,29.5,30.06,South,188,2.0,5.0,43,0.00,,,0.00,meteohub,2013-03-31 03:25:00,
2013-03-30 23:30:00,51.3,29.5,30.06,SE,133,2.0,5.0,43,0.00,,,0.00,meteohub,2013-03-31 03:30:00,
2013-03-30 23:35:00,51.1,29.3,30.06,SE,131,2.0,6.0,43,0.00,,,0.00,meteohub,2013-03-31 03:35:00,
2013-03-30 23:40:00,51.1,29.3,30.06,SE,129,2.0,6.0,43,0.00,,,0.00,meteohub,2013-03-31 03:40:00,
2013-03-30 23:45:00,50.9,29.8,30.06,SSE,155,1.0,7.0,44,0.00,,,0.00,meteohub,2013-03-31 03:45:00,
2013-03-30 23:50:00,50.9,29.8,30.06,SE,141,2.0,7.0,44,0.00,,,0.00,meteohub,2013-03-31 03:50:00,
2013-03-30 23:55:00,50.7,29.1,30.06,SSE,167,1.0,7.0,43,0.00,,,0.00,meteohub,2013-03-31 03:55:00,